User: anonymous   Login
Location: Arborea
(39.7744°N, 8.5819°E)
Time: 07:52:12
(UTC+00:00)
Language:

Meteor 2-10 Rocket - Orbit

View from above orbital plane
View from above orbital plane
View from above satellite
View from above satellite

Ground track
Ground track

The orbit data is extracted from the following two-line orbital elements,

1 14453U 83109B   22023.87783890  .00000052  00000-0  16448-4 0  9991
2 14453  81.1647 214.3918 0103969 237.9563 121.1485 14.24768944986988
Epoch (UTC): 23 January 2022 21:04:05
Eccentricity: 0.0103969
inclination: 81.1647°
perigee height: 734 km
apogee height: 884 km
right ascension of ascending node: 214.3918°
argument of perigee: 237.9563°
revolutions per day: 14.24768944
mean anomaly at epoch: 121.1485°
orbit number at epoch: 98698

The dashed part of the orbit path shows where the satellite is in the earth's shadow,  

DLR